Year,Month,Day,Hour,Minute,Value (Times are PST for temperature in C)
2012,11,24,00,00,6.20
2012,11,24,00,02,6.30
2012,11,24,00,03,6.30
2012,11,24,00,05,6.30
2012,11,24,00,06,6.30
2012,11,24,00,07,6.30
2012,11,24,00,08,6.30
2012,11,24,00,10,6.30
2012,11,24,00,11,6.40
2012,11,24,00,13,6.40
2012,11,24,00,14,6.40
2012,11,24,00,16,6.50
2012,11,24,00,17,6.50
2012,11,24,00,18,6.40
2012,11,24,00,20,6.30
2012,11,24,00,21,6.20
2012,11,24,00,22,6.10
2012,11,24,00,23,6.10
2012,11,24,00,24,6.00
2012,11,24,00,26,6.00
2012,11,24,00,27,5.90
2012,11,24,00,28,5.90
2012,11,24,00,30,5.90
2012,11,24,00,31,5.90
2012,11,24,00,32,5.90
2012,11,24,00,34,5.90
2012,11,24,00,35,6.10
2012,11,24,00,36,6.10
2012,11,24,00,37,6.20
2012,11,24,00,39,6.20
2012,11,24,00,40,6.20
2012,11,24,00,41,6.30
2012,11,24,00,42,6.30
2012,11,24,00,43,6.30
2012,11,24,00,44,6.30
2012,11,24,00,45,6.30
2012,11,24,00,46,6.40
2012,11,24,00,47,6.40
2012,11,24,00,49,6.40
2012,11,24,00,50,6.40
2012,11,24,00,51,6.40
2012,11,24,00,52,6.40
2012,11,24,00,54,6.40
2012,11,24,00,55,6.40
2012,11,24,00,56,6.40
2012,11,24,00,57,6.40
2012,11,24,00,59,6.40
2012,11,24,01,00,6.40
2012,11,24,01,01,6.40
2012,11,24,01,02,6.50
2012,11,24,01,03,6.50
2012,11,24,01,04,6.60
2012,11,24,01,05,6.60
2012,11,24,01,06,6.60
2012,11,24,01,08,6.60
2012,11,24,01,09,6.60
2012,11,24,01,10,6.60
2012,11,24,01,11,6.60
2012,11,24,01,13,6.60
2012,11,24,01,14,6.70
2012,11,24,01,15,6.70
2012,11,24,01,17,6.70
2012,11,24,01,18,6.70
2012,11,24,01,19,6.70
2012,11,24,01,20,6.70
2012,11,24,01,22,6.80
2012,11,24,01,23,6.80
2012,11,24,01,24,6.80
2012,11,24,01,26,6.70
2012,11,24,01,27,6.70
2012,11,24,01,28,6.70
2012,11,24,01,29,6.70
2012,11,24,01,30,6.70
2012,11,24,01,32,6.60
2012,11,24,01,33,6.40
2012,11,24,01,34,6.30
2012,11,24,01,35,6.30
2012,11,24,01,37,6.20
2012,11,24,01,38,6.20
2012,11,24,01,39,6.10
2012,11,24,01,40,6.00
2012,11,24,01,41,6.00
2012,11,24,01,42,5.90
2012,11,24,01,43,5.90
2012,11,24,01,44,6.00
2012,11,24,01,45,6.00
2012,11,24,01,46,6.10
2012,11,24,01,47,6.10
2012,11,24,01,48,6.10
2012,11,24,01,49,6.10
2012,11,24,01,50,6.10
2012,11,24,01,51,6.10
2012,11,24,01,52,6.10
2012,11,24,01,53,6.10
2012,11,24,01,55,6.20
2012,11,24,01,56,6.20
2012,11,24,01,57,6.20
2012,11,24,01,58,6.20
2012,11,24,01,59,6.20
2012,11,24,02,00,6.20
2012,11,24,02,01,6.10
2012,11,24,02,02,6.10
2012,11,24,02,03,6.20
2012,11,24,02,04,6.20
2012,11,24,02,05,6.20
2012,11,24,02,06,6.20
2012,11,24,02,07,6.20
2012,11,24,02,08,6.20
2012,11,24,02,09,6.20
2012,11,24,02,11,6.30
2012,11,24,02,12,6.30
2012,11,24,02,13,6.30
2012,11,24,02,14,6.30
2012,11,24,02,15,6.30
2012,11,24,02,16,6.40
2012,11,24,02,17,6.40
2012,11,24,02,18,6.40
2012,11,24,02,19,6.40
2012,11,24,02,20,6.50
2012,11,24,02,21,6.50
2012,11,24,02,22,6.50
2012,11,24,02,23,6.60
2012,11,24,02,24,6.60
2012,11,24,02,26,6.60
2012,11,24,02,27,6.60
2012,11,24,02,28,6.70
2012,11,24,02,29,6.70
2012,11,24,02,31,6.60
2012,11,24,02,32,6.60
2012,11,24,02,33,6.60
2012,11,24,02,35,6.60
2012,11,24,02,36,6.60
2012,11,24,02,37,6.50
2012,11,24,02,39,6.50
2012,11,24,02,40,6.50
2012,11,24,02,41,6.50
2012,11,24,02,42,6.40
2012,11,24,02,44,6.40
2012,11,24,02,45,6.40
2012,11,24,02,46,6.40
2012,11,24,02,48,6.40
2012,11,24,02,49,6.40
2012,11,24,02,50,6.40
2012,11,24,02,52,6.40
2012,11,24,02,53,6.40
2012,11,24,02,54,6.40
2012,11,24,02,55,6.40
2012,11,24,02,57,6.40
2012,11,24,02,58,6.40
2012,11,24,02,59,6.40
2012,11,24,03,01,6.40
2012,11,24,03,02,6.40
2012,11,24,03,03,6.40
2012,11,24,03,04,6.40
2012,11,24,03,05,6.40
2012,11,24,03,06,6.40
2012,11,24,03,07,6.40
2012,11,24,03,08,6.50
2012,11,24,03,09,6.50
2012,11,24,03,10,6.50
2012,11,24,03,11,6.50
2012,11,24,03,12,6.50
2012,11,24,03,13,6.50
2012,11,24,03,15,6.60
2012,11,24,03,16,6.60
2012,11,24,03,17,6.60
2012,11,24,03,18,6.60
2012,11,24,03,19,6.60
2012,11,24,03,20,6.60
2012,11,24,03,21,6.60
2012,11,24,03,22,6.70
2012,11,24,03,23,6.70
2012,11,24,03,24,6.70
2012,11,24,03,25,6.70
2012,11,24,03,26,6.70
2012,11,24,03,27,6.70
2012,11,24,03,28,6.70
2012,11,24,03,29,6.70
2012,11,24,03,30,6.70
2012,11,24,03,32,6.70
2012,11,24,03,33,6.70
2012,11,24,03,34,6.60
2012,11,24,03,36,6.60
2012,11,24,03,37,6.60
2012,11,24,03,38,6.60
2012,11,24,03,39,6.60
2012,11,24,03,40,6.60
2012,11,24,03,41,6.60
2012,11,24,03,42,6.60
2012,11,24,03,43,6.60
2012,11,24,03,44,6.60
2012,11,24,03,46,6.60
2012,11,24,03,47,6.60
2012,11,24,03,48,6.60
2012,11,24,03,49,6.60
2012,11,24,03,51,6.60
2012,11,24,03,52,6.50
2012,11,24,03,53,6.50
2012,11,24,03,54,6.50
2012,11,24,03,55,6.50
2012,11,24,03,57,6.50
2012,11,24,03,58,6.40
2012,11,24,03,59,6.40
2012,11,24,04,01,6.40
2012,11,24,04,02,6.40
2012,11,24,04,03,6.40
2012,11,24,04,04,6.40
2012,11,24,04,06,6.40
2012,11,24,04,07,6.40
2012,11,24,04,09,6.40
2012,11,24,04,10,6.40
2012,11,24,04,12,6.40
2012,11,24,04,13,6.40
2012,11,24,04,14,6.30
2012,11,24,04,15,6.30
2012,11,24,04,17,6.30
2012,11,24,04,18,6.30
2012,11,24,04,19,6.30
2012,11,24,04,20,6.40
2012,11,24,04,21,6.40
2012,11,24,04,23,6.40
2012,11,24,04,24,6.40
2012,11,24,04,25,6.40
2012,11,24,04,26,6.40
2012,11,24,04,27,6.40
2012,11,24,04,28,6.40
2012,11,24,04,29,6.40
2012,11,24,04,30,6.40
2012,11,24,04,32,6.40
2012,11,24,04,33,6.40
2012,11,24,04,34,6.40
2012,11,24,04,35,6.40
2012,11,24,04,37,6.30
2012,11,24,04,38,6.30
2012,11,24,04,39,6.20
2012,11,24,04,41,6.20
2012,11,24,04,42,6.10
2012,11,24,04,43,6.00
2012,11,24,04,45,5.90
2012,11,24,04,46,5.70
2012,11,24,04,47,5.60
2012,11,24,04,48,5.50
2012,11,24,04,49,5.40
2012,11,24,04,50,5.40
2012,11,24,04,51,5.40
2012,11,24,04,52,5.40
2012,11,24,04,54,5.50
2012,11,24,04,55,5.50
2012,11,24,04,56,5.50
2012,11,24,04,57,5.60
2012,11,24,04,58,5.60
2012,11,24,05,00,5.60
2012,11,24,05,01,5.60
2012,11,24,05,02,5.60
2012,11,24,05,03,5.70
2012,11,24,05,04,5.70
2012,11,24,05,05,5.70
2012,11,24,05,06,5.70
2012,11,24,05,07,5.70
2012,11,24,05,08,5.70
2012,11,24,05,09,5.70
2012,11,24,05,10,5.70
2012,11,24,05,11,5.70
2012,11,24,05,13,5.70
2012,11,24,05,14,5.80
2012,11,24,05,15,5.80
2012,11,24,05,16,5.80
2012,11,24,05,18,5.80
2012,11,24,05,19,5.80
2012,11,24,05,20,5.80
2012,11,24,05,21,5.80
2012,11,24,05,23,5.80
2012,11,24,05,24,5.80
2012,11,24,05,25,5.80
2012,11,24,05,26,5.80
2012,11,24,05,27,5.70
2012,11,24,05,29,5.70
2012,11,24,05,30,5.70
2012,11,24,05,31,5.70
2012,11,24,05,32,5.80
2012,11,24,05,33,5.80
2012,11,24,05,34,5.80
2012,11,24,05,35,5.80
2012,11,24,05,36,5.80
2012,11,24,05,37,5.80
2012,11,24,05,38,5.80
2012,11,24,05,39,5.90
2012,11,24,05,40,5.90
2012,11,24,05,41,5.90
2012,11,24,05,43,5.90
2012,11,24,05,44,5.90
2012,11,24,05,45,6.00
2012,11,24,05,46,6.00
2012,11,24,05,48,6.10
2012,11,24,05,49,6.10
2012,11,24,05,50,6.10
2012,11,24,05,51,6.10
2012,11,24,05,53,6.20
2012,11,24,05,54,6.10
2012,11,24,05,55,6.10
2012,11,24,05,56,6.10
2012,11,24,05,57,6.10
2012,11,24,05,58,6.10
2012,11,24,05,59,6.10
2012,11,24,06,00,6.20
2012,11,24,06,02,6.20
2012,11,24,06,03,6.20
2012,11,24,06,04,6.30
2012,11,24,06,05,6.30
2012,11,24,06,07,6.30
2012,11,24,06,08,6.30
2012,11,24,06,09,6.40
2012,11,24,06,10,6.40
2012,11,24,06,11,6.40
2012,11,24,06,13,6.40
2012,11,24,06,14,6.30
2012,11,24,06,15,6.30
2012,11,24,06,16,6.30
2012,11,24,06,17,6.30
2012,11,24,06,18,6.30
2012,11,24,06,19,6.30
2012,11,24,06,20,6.30
2012,11,24,06,22,6.20
2012,11,24,06,23,6.30
2012,11,24,06,24,6.30
2012,11,24,06,25,6.30
2012,11,24,06,27,6.30
2012,11,24,06,28,6.30
2012,11,24,06,29,6.30
2012,11,24,06,30,6.30
2012,11,24,06,31,6.30
2012,11,24,06,32,6.30
2012,11,24,06,33,6.30
2012,11,24,06,34,6.30
2012,11,24,06,35,6.30
2012,11,24,06,36,6.30
2012,11,24,06,37,6.30
2012,11,24,06,38,6.30
2012,11,24,06,40,6.30
2012,11,24,06,41,6.30
2012,11,24,06,42,6.20
2012,11,24,06,43,6.20
2012,11,24,06,44,6.20
2012,11,24,06,45,6.20
2012,11,24,06,46,6.20
2012,11,24,06,47,6.20
2012,11,24,06,48,6.20
2012,11,24,06,49,6.20
2012,11,24,06,50,6.10
2012,11,24,06,51,6.10
2012,11,24,06,52,6.10
2012,11,24,06,53,6.10
2012,11,24,06,55,6.10
2012,11,24,06,56,6.10
2012,11,24,06,57,6.10
2012,11,24,06,58,6.10
2012,11,24,07,00,6.10
2012,11,24,07,01,6.10
2012,11,24,07,02,6.00
2012,11,24,07,03,6.00
2012,11,24,07,05,6.00
2012,11,24,07,06,6.00
2012,11,24,07,07,6.00
2012,11,24,07,08,6.00
2012,11,24,07,09,6.00
2012,11,24,07,11,5.90
2012,11,24,07,12,5.90
2012,11,24,07,13,5.90
2012,11,24,07,14,5.90
2012,11,24,07,15,5.90
2012,11,24,07,16,5.90
2012,11,24,07,17,5.80
2012,11,24,07,18,5.80
2012,11,24,07,19,5.80
2012,11,24,07,20,5.80
2012,11,24,07,22,5.70
2012,11,24,07,23,5.70
2012,11,24,07,24,5.70
2012,11,24,07,25,5.70
2012,11,24,07,27,5.60
2012,11,24,07,28,5.60
2012,11,24,07,29,5.60
2012,11,24,07,30,5.60
2012,11,24,07,31,5.60
2012,11,24,07,32,5.60
2012,11,24,07,33,5.70
2012,11,24,07,34,5.70
2012,11,24,07,35,5.70
2012,11,24,07,37,5.80
2012,11,24,07,38,5.80
2012,11,24,07,39,5.80
2012,11,24,07,40,5.80
2012,11,24,07,42,5.80
2012,11,24,07,43,5.80
2012,11,24,07,44,5.80
2012,11,24,07,45,5.80
2012,11,24,07,46,5.90
2012,11,24,07,47,5.90
2012,11,24,07,48,5.80
2012,11,24,07,49,5.80
2012,11,24,07,50,5.80
2012,11,24,07,52,5.80
2012,11,24,07,53,5.70
2012,11,24,07,54,5.70
2012,11,24,07,55,5.70
2012,11,24,07,57,5.70
2012,11,24,07,58,5.70
2012,11,24,07,59,5.70
2012,11,24,08,00,5.70
2012,11,24,08,02,5.70
2012,11,24,08,03,5.70
2012,11,24,08,04,5.70
2012,11,24,08,06,5.70
2012,11,24,08,07,5.70
2012,11,24,08,08,5.60
2012,11,24,08,09,5.60
2012,11,24,08,10,5.60
2012,11,24,08,11,5.50
2012,11,24,08,12,5.50
2012,11,24,08,13,5.50
2012,11,24,08,14,5.50
2012,11,24,08,15,5.50
2012,11,24,08,16,5.50
2012,11,24,08,17,5.50
2012,11,24,08,18,5.50
2012,11,24,08,19,5.40
2012,11,24,08,20,5.40
2012,11,24,08,21,5.40
2012,11,24,08,22,5.40
2012,11,24,08,23,5.40
2012,11,24,08,24,5.40
2012,11,24,08,25,5.40
2012,11,24,08,26,5.40
2012,11,24,08,27,5.40
2012,11,24,08,29,5.40
2012,11,24,08,30,5.30
2012,11,24,08,31,5.30
2012,11,24,08,33,5.30
2012,11,24,08,34,5.40
2012,11,24,08,35,5.40
2012,11,24,08,36,5.40
2012,11,24,08,38,5.50
2012,11,24,08,39,5.60
2012,11,24,08,40,5.70
2012,11,24,08,42,5.70
2012,11,24,08,43,5.80
2012,11,24,08,44,5.90
2012,11,24,08,45,5.90
2012,11,24,08,47,5.90
2012,11,24,08,48,5.90
2012,11,24,08,49,5.90
2012,11,24,08,50,5.90
2012,11,24,08,52,5.90
2012,11,24,08,53,5.90
2012,11,24,08,54,5.90
2012,11,24,08,56,5.90
2012,11,24,08,57,5.90
2012,11,24,08,58,5.90
2012,11,24,08,59,6.00
2012,11,24,09,00,6.10
2012,11,24,09,02,6.20
2012,11,24,09,03,6.20
2012,11,24,09,04,6.30
2012,11,24,09,05,6.30
2012,11,24,09,07,6.30
2012,11,24,09,08,6.40
2012,11,24,09,09,6.50
2012,11,24,09,11,6.60
2012,11,24,09,12,6.60
2012,11,24,09,13,6.70
2012,11,24,09,14,6.80
2012,11,24,09,15,6.80
2012,11,24,09,16,6.90
2012,11,24,09,17,7.00
2012,11,24,09,18,7.10
2012,11,24,09,19,7.10
2012,11,24,09,21,7.20
2012,11,24,09,22,7.20
2012,11,24,09,23,7.30
2012,11,24,09,24,7.30
2012,11,24,09,26,7.30
2012,11,24,09,27,7.40
2012,11,24,09,28,7.40
2012,11,24,09,29,7.40
2012,11,24,09,30,7.40
2012,11,24,09,32,7.40
2012,11,24,09,33,7.40
2012,11,24,09,34,7.40
2012,11,24,09,35,7.50
2012,11,24,09,37,7.60
2012,11,24,09,38,7.70
2012,11,24,09,39,7.70
2012,11,24,09,40,7.70
2012,11,24,09,42,7.70
2012,11,24,09,43,7.60
2012,11,24,09,44,7.60
2012,11,24,09,45,7.60
2012,11,24,09,46,7.60
2012,11,24,09,47,7.60
2012,11,24,09,48,7.60
2012,11,24,09,49,7.60
2012,11,24,09,50,7.60
2012,11,24,09,51,7.70
2012,11,24,09,52,7.70
2012,11,24,09,53,7.70
2012,11,24,09,54,7.70
2012,11,24,09,55,7.70
2012,11,24,09,56,7.80
2012,11,24,09,57,7.80
2012,11,24,09,58,7.80
2012,11,24,09,59,7.80
2012,11,24,10,00,7.90
2012,11,24,10,01,7.90
2012,11,24,10,02,8.00
2012,11,24,10,03,8.00
2012,11,24,10,04,8.10
2012,11,24,10,05,8.10
2012,11,24,10,07,8.10
2012,11,24,10,08,8.10
2012,11,24,10,09,8.20
2012,11,24,10,10,8.20
2012,11,24,10,12,8.20
2012,11,24,10,13,8.20
2012,11,24,10,14,8.30
2012,11,24,10,15,8.30
2012,11,24,10,17,8.30
2012,11,24,10,18,8.30
2012,11,24,10,19,8.30
2012,11,24,10,20,8.30
2012,11,24,10,22,8.40
2012,11,24,10,23,8.40
2012,11,24,10,24,8.40
2012,11,24,10,25,8.50
2012,11,24,10,26,8.50
2012,11,24,10,27,8.50
2012,11,24,10,28,8.50
2012,11,24,10,29,8.60
2012,11,24,10,30,8.60
2012,11,24,10,31,8.60
2012,11,24,10,32,8.60
2012,11,24,10,33,8.60
2012,11,24,10,34,8.60
2012,11,24,10,35,8.60
2012,11,24,10,36,8.50
2012,11,24,10,37,8.50
2012,11,24,10,38,8.60
2012,11,24,10,40,8.60
2012,11,24,10,41,8.60
2012,11,24,10,42,8.60
2012,11,24,10,43,8.50
2012,11,24,10,44,8.50
2012,11,24,10,45,8.60
2012,11,24,10,46,8.60
2012,11,24,10,47,8.60
2012,11,24,10,48,8.60
2012,11,24,10,49,8.60
2012,11,24,10,50,8.60
2012,11,24,10,51,8.70
2012,11,24,10,52,8.70
2012,11,24,10,53,8.70
2012,11,24,10,54,8.70
2012,11,24,10,55,8.70
2012,11,24,10,56,8.80
2012,11,24,10,57,8.80
2012,11,24,10,59,8.80
2012,11,24,11,00,8.80
2012,11,24,11,01,8.80
2012,11,24,11,02,8.90
2012,11,24,11,04,8.90
2012,11,24,11,05,8.90
2012,11,24,11,06,8.90
2012,11,24,11,07,8.90
2012,11,24,11,08,8.90
2012,11,24,11,09,8.90
2012,11,24,11,10,8.90
2012,11,24,11,11,8.90
2012,11,24,11,12,9.00
2012,11,24,11,13,9.00
2012,11,24,11,14,9.00
2012,11,24,11,15,8.90
2012,11,24,11,16,9.00
2012,11,24,11,17,9.00
2012,11,24,11,18,9.00
2012,11,24,11,19,9.00
2012,11,24,11,20,9.10
2012,11,24,11,21,9.10
2012,11,24,11,22,9.10
2012,11,24,11,23,9.10
2012,11,24,11,24,9.10
2012,11,24,11,25,9.20
2012,11,24,11,26,9.20
2012,11,24,11,28,9.20
2012,11,24,11,29,9.20
2012,11,24,11,30,9.20
2012,11,24,11,31,9.20
2012,11,24,11,32,9.30
2012,11,24,11,33,9.30
2012,11,24,11,34,9.20
2012,11,24,11,35,9.20
2012,11,24,11,37,9.20
2012,11,24,11,38,9.30
2012,11,24,11,39,9.30
2012,11,24,11,40,9.40
2012,11,24,11,41,9.40
2012,11,24,11,42,9.40
2012,11,24,11,43,9.40
2012,11,24,11,44,9.40
2012,11,24,11,45,9.40
2012,11,24,11,47,9.40
2012,11,24,11,48,9.40
2012,11,24,11,49,9.40
2012,11,24,11,50,9.40
2012,11,24,11,52,9.40
2012,11,24,11,53,9.60
2012,11,24,11,54,9.60
2012,11,24,11,55,9.60
2012,11,24,11,57,9.70
2012,11,24,11,58,9.70
2012,11,24,11,59,9.70
2012,11,24,12,00,9.70
2012,11,24,12,01,9.70
2012,11,24,12,02,9.70
2012,11,24,12,03,9.80
2012,11,24,12,04,9.80
2012,11,24,12,05,9.80
2012,11,24,12,06,9.80
2012,11,24,12,07,9.80
2012,11,24,12,08,9.80
2012,11,24,12,09,9.80
2012,11,24,12,10,9.80
2012,11,24,12,11,9.80
2012,11,24,12,12,9.80
2012,11,24,12,14,9.80
2012,11,24,12,15,9.80
2012,11,24,12,16,9.80
2012,11,24,12,17,9.80
2012,11,24,12,19,9.80
2012,11,24,12,20,9.80
2012,11,24,12,21,9.80
2012,11,24,12,22,9.80
2012,11,24,12,23,9.80
2012,11,24,12,25,9.80
2012,11,24,12,26,9.80
2012,11,24,12,27,9.80
2012,11,24,12,28,9.80
2012,11,24,12,30,9.80
2012,11,24,12,31,9.90
2012,11,24,12,32,9.90
2012,11,24,12,33,10.00
2012,11,24,12,34,10.10
2012,11,24,12,35,10.10
2012,11,24,12,36,10.10
2012,11,24,12,37,10.10
2012,11,24,12,38,10.10
2012,11,24,12,39,10.00
2012,11,24,12,40,9.90
2012,11,24,12,42,9.80
2012,11,24,12,43,9.70
2012,11,24,12,44,9.60
2012,11,24,12,45,9.50
2012,11,24,12,46,9.40
2012,11,24,12,47,9.40
2012,11,24,12,48,9.30
2012,11,24,12,49,9.30
2012,11,24,12,50,9.30
2012,11,24,12,51,9.20
2012,11,24,12,52,9.20
2012,11,24,12,53,9.20
2012,11,24,12,54,9.20
2012,11,24,12,55,9.20
2012,11,24,12,56,9.20
2012,11,24,12,57,9.20
2012,11,24,12,59,9.10
2012,11,24,13,00,9.10
2012,11,24,13,01,9.00
2012,11,24,13,02,9.00
2012,11,24,13,03,8.90
2012,11,24,13,04,8.90
2012,11,24,13,05,8.90
2012,11,24,13,06,8.90
2012,11,24,13,07,8.80
2012,11,24,13,08,8.80
2012,11,24,13,09,8.80
2012,11,24,13,10,8.80
2012,11,24,13,11,8.80
2012,11,24,13,12,8.80
2012,11,24,13,14,8.80
2012,11,24,13,15,8.80
2012,11,24,13,16,8.80
2012,11,24,13,17,8.80
2012,11,24,13,19,8.80
2012,11,24,13,20,8.80
2012,11,24,13,21,8.80
2012,11,24,13,22,8.80
2012,11,24,13,23,8.80
2012,11,24,13,24,8.80
2012,11,24,13,25,8.80
2012,11,24,13,26,8.80
2012,11,24,13,27,8.80
2012,11,24,13,29,8.80
2012,11,24,13,30,8.80
2012,11,24,13,31,8.80
2012,11,24,13,33,8.70
2012,11,24,13,34,8.70
2012,11,24,13,35,8.70
2012,11,24,13,36,8.70
2012,11,24,13,38,8.70
2012,11,24,13,39,8.70
2012,11,24,13,40,8.70
2012,11,24,13,42,8.60
2012,11,24,13,43,8.60
2012,11,24,13,44,8.60
2012,11,24,13,46,8.60
2012,11,24,13,47,8.60
2012,11,24,13,48,8.60
2012,11,24,13,50,8.60
2012,11,24,13,51,8.60
2012,11,24,13,52,8.60
2012,11,24,13,53,8.60
2012,11,24,13,55,8.60
2012,11,24,13,56,8.70
2012,11,24,13,57,8.60
2012,11,24,13,58,8.60
2012,11,24,14,00,8.60
2012,11,24,14,01,8.60
2012,11,24,14,02,8.60
2012,11,24,14,03,8.70
2012,11,24,14,05,8.70
2012,11,24,14,06,8.60
2012,11,24,14,07,8.60
2012,11,24,14,08,8.60
2012,11,24,14,09,8.60
2012,11,24,14,11,8.60
2012,11,24,14,12,8.70
2012,11,24,14,13,8.70
2012,11,24,14,14,8.70
2012,11,24,14,16,8.70
2012,11,24,14,17,8.70
2012,11,24,14,18,8.70
2012,11,24,14,19,8.70
2012,11,24,14,21,8.70
2012,11,24,14,22,8.70
2012,11,24,14,23,8.70
2012,11,24,14,25,8.60
2012,11,24,14,26,8.60
2012,11,24,14,27,8.60
2012,11,24,14,28,8.60
2012,11,24,14,30,8.60
2012,11,24,14,31,8.60
2012,11,24,14,32,8.60
2012,11,24,14,33,8.60
2012,11,24,14,35,8.60
2012,11,24,14,36,8.60
2012,11,24,14,37,8.70
2012,11,24,14,38,8.70
2012,11,24,14,39,8.60
2012,11,24,14,40,8.60
2012,11,24,14,41,8.60
2012,11,24,14,42,8.60
2012,11,24,14,43,8.60
2012,11,24,14,44,8.70
2012,11,24,14,45,8.70
2012,11,24,14,46,8.70
2012,11,24,14,47,8.70
2012,11,24,14,48,8.80
2012,11,24,14,49,8.80
2012,11,24,14,50,8.80
2012,11,24,14,51,8.80
2012,11,24,14,52,8.80
2012,11,24,14,53,8.80
2012,11,24,14,54,8.80
2012,11,24,14,55,8.80
2012,11,24,14,56,8.80
2012,11,24,14,58,8.80
2012,11,24,14,59,8.80
2012,11,24,15,00,8.80
2012,11,24,15,01,8.80
2012,11,24,15,02,8.90
2012,11,24,15,03,8.90
2012,11,24,15,04,8.90
2012,11,24,15,05,8.90
2012,11,24,15,06,8.90
2012,11,24,15,08,9.00
2012,11,24,15,09,9.00
2012,11,24,15,10,9.00
2012,11,24,15,11,9.10
2012,11,24,15,13,9.10
2012,11,24,15,14,9.10
2012,11,24,15,15,9.00
2012,11,24,15,16,9.00
2012,11,24,15,18,8.90
2012,11,24,15,19,8.90
2012,11,24,15,20,8.90
2012,11,24,15,21,8.90
2012,11,24,15,23,8.90
2012,11,24,15,24,8.90
2012,11,24,15,25,8.90
2012,11,24,15,27,8.90
2012,11,24,15,28,8.80
2012,11,24,15,29,8.90
2012,11,24,15,30,8.90
2012,11,24,15,31,8.90
2012,11,24,15,33,8.90
2012,11,24,15,34,9.00
2012,11,24,15,35,9.10
2012,11,24,15,36,9.10
2012,11,24,15,37,9.20
2012,11,24,15,38,9.20
2012,11,24,15,39,9.30
2012,11,24,15,40,9.30
2012,11,24,15,41,9.30
2012,11,24,15,42,9.20
2012,11,24,15,44,9.20
2012,11,24,15,45,9.10
2012,11,24,15,46,9.10
2012,11,24,15,47,9.10
2012,11,24,15,49,9.00
2012,11,24,15,50,8.90
2012,11,24,15,51,8.90
2012,11,24,15,52,8.80
2012,11,24,15,53,8.70
2012,11,24,15,55,8.70
2012,11,24,15,56,8.60
2012,11,24,15,57,8.50
2012,11,24,15,59,8.40
2012,11,24,16,00,8.40
2012,11,24,16,01,8.40
2012,11,24,16,02,8.40
2012,11,24,16,03,8.30
2012,11,24,16,05,8.30
2012,11,24,16,06,8.30
2012,11,24,16,07,8.20
2012,11,24,16,08,8.20
2012,11,24,16,09,8.20
2012,11,24,16,10,8.10
2012,11,24,16,11,8.10
2012,11,24,16,12,8.10
2012,11,24,16,13,8.00
2012,11,24,16,14,7.90
2012,11,24,16,15,7.90
2012,11,24,16,17,7.90
2012,11,24,16,18,7.90
2012,11,24,16,19,7.80
2012,11,24,16,20,7.80
2012,11,24,16,21,7.80
2012,11,24,16,22,7.80
2012,11,24,16,23,7.70
2012,11,24,16,24,7.70
2012,11,24,16,25,7.70
2012,11,24,16,26,7.60
2012,11,24,16,27,7.60
2012,11,24,16,28,7.50
2012,11,24,16,29,7.40
2012,11,24,16,30,7.40
2012,11,24,16,31,7.30
2012,11,24,16,32,7.30
2012,11,24,16,33,7.30
2012,11,24,16,34,7.20
2012,11,24,16,36,7.20
2012,11,24,16,37,7.20
2012,11,24,16,38,7.10
2012,11,24,16,40,7.10
2012,11,24,16,41,7.00
2012,11,24,16,42,7.00
2012,11,24,16,43,6.90
2012,11,24,16,45,6.90
2012,11,24,16,46,6.90
2012,11,24,16,47,6.90
2012,11,24,16,48,6.90
2012,11,24,16,49,6.80
2012,11,24,16,50,6.80
2012,11,24,16,52,6.80
2012,11,24,16,53,6.80
2012,11,24,16,54,6.80
2012,11,24,16,56,6.80
2012,11,24,16,57,6.70
2012,11,24,16,58,6.70
2012,11,24,16,59,6.70
2012,11,24,17,01,6.70
2012,11,24,17,02,6.70
2012,11,24,17,03,6.70
2012,11,24,17,04,6.70
2012,11,24,17,05,6.70
2012,11,24,17,07,6.70
2012,11,24,17,08,6.70
2012,11,24,17,09,6.70
2012,11,24,17,10,6.70
2012,11,24,17,11,6.70
2012,11,24,17,12,6.60
2012,11,24,17,13,6.60
2012,11,24,17,14,6.60
2012,11,24,17,15,6.50
2012,11,24,17,16,6.50
2012,11,24,17,17,6.40
2012,11,24,17,18,6.40
2012,11,24,17,19,6.40
2012,11,24,17,20,6.30
2012,11,24,17,22,6.30
2012,11,24,17,23,6.30
2012,11,24,17,24,6.30
2012,11,24,17,26,6.30
2012,11,24,17,27,6.30
2012,11,24,17,28,6.30
2012,11,24,17,29,6.20
2012,11,24,17,31,6.20
2012,11,24,17,32,6.20
2012,11,24,17,33,6.20
2012,11,24,17,34,6.20
2012,11,24,17,36,6.20
2012,11,24,17,37,6.20
2012,11,24,17,38,6.20
2012,11,24,17,39,6.20
2012,11,24,17,40,6.20
2012,11,24,17,41,6.20
2012,11,24,17,42,6.20
2012,11,24,17,43,6.10
2012,11,24,17,44,6.10
2012,11,24,17,46,6.00
2012,11,24,17,47,5.90
2012,11,24,17,48,5.90
2012,11,24,17,50,5.80
2012,11,24,17,51,5.80
2012,11,24,17,52,5.80
2012,11,24,17,53,5.80
2012,11,24,17,55,5.70
2012,11,24,17,56,5.70
2012,11,24,17,57,5.70
2012,11,24,17,58,5.70
2012,11,24,18,00,5.80
2012,11,24,18,01,5.80
2012,11,24,18,02,5.80
2012,11,24,18,03,5.80
2012,11,24,18,05,5.80
2012,11,24,18,06,5.80
2012,11,24,18,07,5.80
2012,11,24,18,08,5.80
2012,11,24,18,10,5.90
2012,11,24,18,11,5.90
2012,11,24,18,12,5.90
2012,11,24,18,13,5.90
2012,11,24,18,14,5.90
2012,11,24,18,15,5.90
2012,11,24,18,16,5.90
2012,11,24,18,17,5.90
2012,11,24,18,19,5.90
2012,11,24,18,20,5.90
2012,11,24,18,21,5.90
2012,11,24,18,22,5.80
2012,11,24,18,23,5.80
2012,11,24,18,24,5.80
2012,11,24,18,25,5.80
2012,11,24,18,27,5.80
2012,11,24,18,28,5.80
2012,11,24,18,29,5.80
2012,11,24,18,31,5.80
2012,11,24,18,32,5.80
2012,11,24,18,33,5.80
2012,11,24,18,34,5.80
2012,11,24,18,35,5.80
2012,11,24,18,36,5.80
2012,11,24,18,37,5.70
2012,11,24,18,38,5.70
2012,11,24,18,39,5.70
2012,11,24,18,41,5.60
2012,11,24,18,42,5.60
2012,11,24,18,43,5.70
2012,11,24,18,44,5.70
2012,11,24,18,45,5.70
2012,11,24,18,46,5.70
2012,11,24,18,47,5.70
2012,11,24,18,48,5.70
2012,11,24,18,49,5.70
2012,11,24,18,50,5.70
2012,11,24,18,51,5.70
2012,11,24,18,52,5.70
2012,11,24,18,53,5.70
2012,11,24,18,54,5.70
2012,11,24,18,55,5.80
2012,11,24,18,56,5.80
2012,11,24,18,57,5.80
2012,11,24,18,58,5.80
2012,11,24,18,59,5.90
2012,11,24,19,00,5.90
2012,11,24,19,01,5.90
2012,11,24,19,02,5.90
2012,11,24,19,03,5.90
2012,11,24,19,04,5.90
2012,11,24,19,06,5.90
2012,11,24,19,07,5.80
2012,11,24,19,08,5.80
2012,11,24,19,09,5.80
2012,11,24,19,10,5.80
2012,11,24,19,12,5.80
2012,11,24,19,13,5.80
2012,11,24,19,14,5.80
2012,11,24,19,15,5.80
2012,11,24,19,16,5.70
2012,11,24,19,17,5.70
2012,11,24,19,18,5.70
2012,11,24,19,19,5.70
2012,11,24,19,20,5.60
2012,11,24,19,21,5.50
2012,11,24,19,22,5.40
2012,11,24,19,23,5.40
2012,11,24,19,24,5.30
2012,11,24,19,25,5.30
2012,11,24,19,26,5.20
2012,11,24,19,27,5.20
2012,11,24,19,28,5.10
2012,11,24,19,29,5.00
2012,11,24,19,30,4.90
2012,11,24,19,31,4.80
2012,11,24,19,33,4.70
2012,11,24,19,34,4.70
2012,11,24,19,35,4.60
2012,11,24,19,36,4.60
2012,11,24,19,38,4.50
2012,11,24,19,39,4.40
2012,11,24,19,40,4.30
2012,11,24,19,41,4.30
2012,11,24,19,43,4.30
2012,11,24,19,44,4.20
2012,11,24,19,45,4.20
2012,11,24,19,46,4.20
2012,11,24,19,48,4.20
2012,11,24,19,49,4.20
2012,11,24,19,50,4.30
2012,11,24,19,51,4.30
2012,11,24,19,52,4.40
2012,11,24,19,54,4.50
2012,11,24,19,55,4.60
2012,11,24,19,56,4.60
2012,11,24,19,57,4.70
2012,11,24,19,59,4.80
2012,11,24,20,00,4.80
2012,11,24,20,01,4.80
2012,11,24,20,03,4.80
2012,11,24,20,04,4.80
2012,11,24,20,05,4.80
2012,11,24,20,06,4.80
2012,11,24,20,07,4.80
2012,11,24,20,09,4.80
2012,11,24,20,10,4.80
2012,11,24,20,11,4.70
2012,11,24,20,12,4.70
2012,11,24,20,13,4.70
2012,11,24,20,15,4.70
2012,11,24,20,16,4.70
2012,11,24,20,17,4.70
2012,11,24,20,18,4.70
2012,11,24,20,20,4.70
2012,11,24,20,21,4.60
2012,11,24,20,22,4.60
2012,11,24,20,23,4.50
2012,11,24,20,24,4.50
2012,11,24,20,26,4.40
2012,11,24,20,27,4.40
2012,11,24,20,28,4.30
2012,11,24,20,29,4.20
2012,11,24,20,30,4.20
2012,11,24,20,31,4.10
2012,11,24,20,32,4.10
2012,11,24,20,33,4.00
2012,11,24,20,34,3.90
2012,11,24,20,35,3.90
2012,11,24,20,36,3.90
2012,11,24,20,37,3.90
2012,11,24,20,38,3.80
2012,11,24,20,39,3.80
2012,11,24,20,40,3.80
2012,11,24,20,41,3.80
2012,11,24,20,42,3.80
2012,11,24,20,43,3.80
2012,11,24,20,45,3.80
2012,11,24,20,46,3.70
2012,11,24,20,47,3.70
2012,11,24,20,48,3.70
2012,11,24,20,49,3.70
2012,11,24,20,50,3.70
2012,11,24,20,51,3.70
2012,11,24,20,52,3.70
2012,11,24,20,53,3.60
2012,11,24,20,54,3.60
2012,11,24,20,55,3.60
2012,11,24,20,56,3.60
2012,11,24,20,57,3.60
2012,11,24,20,58,3.60